FORMOSAT-3 FM2 (29052 NORAD) Tracking and Keplerian Element Data

This shows tracking and keplerian element data for the satellite.

Feedback or suggestion? Click here.




ElementValue
Catalog29052
NameFORMOSAT-3 FM2
Epoch Orbit83026
Epoch Day72.93196151
Epoch Year2022
RAAN317.1836
Inclination72.0352
Eccentricity0.0040455
Argument of Perigee342.879
Mean Anonmoly17.0979
Mean Motion14.29099414
Decay Rate3.05E-06
L11 29052U 06011F 22072.93196151 .00000305 00000+0 13520-3 0 9995
L22 29052 72.0352 317.1836 0040455 342.8790 17.0979 14.29099414830264



Live tracking and technical data element details for FORMOSAT-3 FM2 (NORAD 29052). FORMOSAT-3 FM2 can be tracked NOW for your location showing map with azimuth and elevation plus other details from your city location.







IsCatalogInMostPopularTable: catalog: 29052, numindb: 409
Update: records affected: 1



GetName: 29052 FORMOSAT-3 FM2

Hit Count: updated at: Thu, 15 May 2025 09:26:59 GMT